GW5818 Weather Reports


Display with metric or nautical units.
time (UTC)temp
F
wind
direction
speed
MPH
gust
MPH
rain 1hr
in
rain 24hr
in
rain mn
in
humidity
%
barometer
mb
20260504081525 37 95 0.0 0.0 0.00 0.00 0.00 81 1010.1
20260504050013 39 326 0.0 0.0 0.00 0.00 0.00 76 1010.5
20260504044520 38 323 0.0 0.0 0.00 0.00 0.00 77 1010.5
20260504043024 38 323 0.0 2.0 0.00 0.00 0.00 78 1010.6
20260504041524 38 36 0.0 0.0 0.00 0.00 0.00 77 1010.4
20260504040011 38 36 0.0 0.0 0.00 0.00 0.00 77 1010.3
20260504034518 38 36 0.0 0.0 0.00 0.00 0.00 76 1010.2
20260504033019 38 36 0.0 0.0 0.00 0.00 0.00 75 1010.0
20260504031526 38 36 0.0 0.0 0.00 0.00 0.00 74 1009.9
20260504030031 39 36 0.0 0.0 0.00 0.00 0.00 72 1009.9
20260504024515 39 360 0.0 0.0 0.00 0.00 0.00 72 1010.0
20260504023017 39 360 0.0 2.0 0.00 0.00 0.00 71 1010.2
20260504021524 39 74 0.0 2.0 0.00 0.00 0.00 70 1010.0
20260504020035 40 311 0.0 2.0 0.00 0.00 0.00 66 1009.8
20260504014526 41 69 0.0 2.0 0.00 0.00 0.00 64 1009.7
20260504013019 42 13 1.0 3.0 0.00 0.00 0.00 63 1009.6
20260504011519 43 311 1.0 3.0 0.00 0.00 0.00 61 1009.5
20260504010022 44 285 0.0 2.0 0.00 0.00 0.00 58 1009.3
20260504004538 45 296 0.0 0.0 0.00 0.00 0.00 54 1009.1
20260504003030 47 352 0.0 2.0 0.00 0.00 0.00 49 1008.9
20260504001529 48 80 0.0 2.0 0.00 0.00 0.00 45 1008.6
20260504000004 50 284 2.0 4.0 0.00 0.00 0.00 37 1008.4
20260503234513 51 36 0.0 2.0 0.00 0.00 0.00 40 1008.3
20260503233012 52 138 0.0 3.0 0.00 0.00 0.00 36 1008.2
20260503231509 53 40 2.0 9.0 0.00 0.00 0.00 34 1008.1
20260503230009 54 202 1.0 3.0 0.00 0.00 0.00 34 1008.1
20260503224504 55 82 0.0 3.0 0.00 0.00 0.00 34 1008.1
20260503223010 54 320 1.0 4.0 0.00 0.00 0.00 36 1008.2
20260503221508 53 350 1.0 12.0 0.00 0.00 0.00 35 1008.2
20260503220027 54 65 3.0 11.0 0.00 0.00 0.00 34 1008.2
20260503214520 54 250 4.0 12.0 0.00 0.00 0.00 34 1008.3
20260503213006 53 24 6.0 11.0 0.00 0.00 0.00 36 1008.2
20260503211513 52 293 5.0 15.0 0.00 0.00 0.00 35 1008.3
20260503210015 52 293 6.0 11.0 0.00 0.00 0.00 36 1008.1
20260503204523 51 289 9.0 18.0 0.00 0.00 0.00 36 1008.1
20260503203013 51 352 3.0 17.0 0.00 0.00 0.00 37 1008.0
20260503201506 52 318 6.0 15.0 0.00 0.00 0.00 37 1007.9
20260503200013 52 346 5.0 21.0 0.00 0.00 0.00 36 1007.9
20260503194512 52 30 8.0 22.0 0.00 0.00 0.00 37 1008.0
20260503193011 51 307 6.0 17.0 0.00 0.00 0.00 37 1008.2
20260503191514 51 334 4.0 16.0 0.00 0.00 0.00 37 1008.0
20260503190016 50 28 3.0 18.0 0.00 0.00 0.00 38 1008.2
20260503184514 50 326 5.0 17.0 0.00 0.00 0.00 38 1008.1
20260503183034 50 308 5.0 16.0 0.00 0.00 0.00 39 1008.0
20260503181542 50 266 6.0 14.0 0.00 0.00 0.00 39 1008.2
20260503180039 50 329 5.0 14.0 0.00 0.00 0.00 40 1008.0
20260503174513 50 59 3.0 13.0 0.00 0.00 0.00 40 1008.0
20260503173018 49 319 9.0 15.0 0.00 0.00 0.00 42 1008.1
20260503171523 50 317 7.0 17.0 0.00 0.00 0.00 41 1008.3